Time,TemperatureF,DewpointF,PressureIn,WindDirection,WindDirectionDegrees,WindSpeedMPH,WindSpeedGustMPH,Humidity,HourlyPrecipIn,Conditions,Clouds,dailyrainin,SoftwareType,DateUTC
2013-09-09 00:00:00,64.0,51.0,29.54,WNW,303,0.0,-999.0,64,-99.99,,,0.00,weatherlink.com 1.10,2013-09-09 06:00:00,
2013-09-09 00:15:00,63.7,51.0,29.55,WNW,303,0.0,-999.0,64,-99.99,,,0.00,weatherlink.com 1.10,2013-09-09 06:15:00,
2013-09-09 00:30:00,63.4,51.0,29.55,WNW,303,0.0,-999.0,65,-99.99,,,0.00,weatherlink.com 1.10,2013-09-09 06:30:00,
2013-09-09 00:45:00,62.9,51.0,29.55,WNW,303,0.0,-999.0,65,-99.99,,,0.00,weatherlink.com 1.10,2013-09-09 06:45:00,
2013-09-09 01:00:00,61.5,51.0,29.55,WNW,303,0.0,-999.0,68,-99.99,,,0.00,weatherlink.com 1.10,2013-09-09 07:00:00,
2013-09-09 01:15:00,60.7,51.0,29.57,WNW,303,0.0,-999.0,70,-99.99,,,0.00,weatherlink.com 1.10,2013-09-09 07:15:00,
2013-09-09 01:30:00,62.0,53.0,29.57,WNW,303,0.0,-999.0,73,-99.99,,,0.00,weatherlink.com 1.10,2013-09-09 07:30:00,
2013-09-09 01:45:00,62.1,53.0,29.55,WNW,303,0.0,-999.0,71,-99.99,,,0.00,weatherlink.com 1.10,2013-09-09 07:45:00,
2013-09-09 02:00:00,60.9,51.0,29.56,WNW,303,0.0,-999.0,71,-99.99,,,0.00,weatherlink.com 1.10,2013-09-09 08:00:00,
2013-09-09 02:15:00,59.8,51.0,29.57,WNW,303,0.0,-999.0,73,-99.99,,,0.00,weatherlink.com 1.10,2013-09-09 08:15:00,
2013-09-09 02:30:00,59.2,51.0,29.57,WNW,303,0.0,-999.0,75,-99.99,,,0.00,weatherlink.com 1.10,2013-09-09 08:30:00,
2013-09-09 02:45:00,59.3,52.0,29.58,WNW,303,1.0,-999.0,76,-99.99,,,0.00,weatherlink.com 1.10,2013-09-09 08:45:00,
2013-09-09 03:00:00,59.6,53.0,29.57,WNW,303,3.0,-999.0,80,-99.99,,,0.00,weatherlink.com 1.10,2013-09-09 09:00:00,
2013-09-09 03:15:00,58.7,53.0,29.56,WNW,303,0.0,-999.0,82,-99.99,,,0.00,weatherlink.com 1.10,2013-09-09 09:15:00,
2013-09-09 03:30:00,58.7,53.0,29.56,WNW,303,2.0,-999.0,81,-99.99,,,0.00,weatherlink.com 1.10,2013-09-09 09:30:00,
2013-09-09 03:45:00,58.3,53.0,29.56,WNW,303,4.0,-999.0,82,-99.99,,,0.00,weatherlink.com 1.10,2013-09-09 09:45:00,
2013-09-09 04:00:00,57.5,52.0,29.57,WNW,303,0.0,-999.0,82,-99.99,,,0.00,weatherlink.com 1.10,2013-09-09 10:00:00,
2013-09-09 04:15:00,57.2,51.0,29.57,WNW,303,0.0,-999.0,81,-99.99,,,0.00,weatherlink.com 1.10,2013-09-09 10:15:00,
2013-09-09 04:30:00,56.9,52.0,29.57,WNW,303,0.0,-999.0,82,-99.99,,,0.00,weatherlink.com 1.10,2013-09-09 10:30:00,
2013-09-09 04:45:00,56.7,52.0,29.61,WNW,303,0.0,-999.0,83,-99.99,,,0.00,weatherlink.com 1.10,2013-09-09 10:45:00,
2013-09-09 05:00:00,56.7,52.0,29.61,WNW,303,3.0,-999.0,83,-99.99,,,0.00,weatherlink.com 1.10,2013-09-09 11:00:00,
2013-09-09 05:15:00,57.2,51.0,29.61,WNW,303,2.0,-999.0,81,-99.99,,,0.00,weatherlink.com 1.10,2013-09-09 11:15:00,
2013-09-09 05:30:00,57.0,51.0,29.61,WNW,303,0.0,-999.0,81,-99.99,,,0.00,weatherlink.com 1.10,2013-09-09 11:30:00,
2013-09-09 05:45:00,56.7,51.0,29.62,WNW,303,3.0,-999.0,80,-99.99,,,0.00,weatherlink.com 1.10,2013-09-09 11:45:00,
2013-09-09 06:01:00,56.2,51.0,29.61,NW,306,5.0,-999.0,83,-99.99,,,0.00,weatherlink.com 1.10,2013-09-09 12:01:00,
2013-09-09 06:16:00,55.7,51.0,29.62,NW,307,2.0,-999.0,84,-99.99,,,0.00,weatherlink.com 1.10,2013-09-09 12:16:00,
2013-09-09 06:30:00,55.7,51.0,29.62,NW,307,0.0,-999.0,84,-99.99,,,0.00,weatherlink.com 1.10,2013-09-09 12:30:00,
2013-09-09 06:46:00,55.9,51.0,29.63,NNW,327,0.0,-999.0,84,-99.99,,,0.00,weatherlink.com 1.10,2013-09-09 12:46:00,
2013-09-09 07:01:00,55.9,51.0,29.62,NNW,327,0.0,-999.0,84,-99.99,,,0.00,weatherlink.com 1.10,2013-09-09 13:01:00,
2013-09-09 07:16:00,56.5,52.0,29.63,NNW,327,0.0,-999.0,84,-99.99,,,0.00,weatherlink.com 1.10,2013-09-09 13:16:00,
2013-09-09 07:30:00,58.3,53.0,29.63,NNW,327,0.0,-999.0,82,-99.99,,,0.00,weatherlink.com 1.10,2013-09-09 13:30:00,
2013-09-09 07:46:00,59.5,52.0,29.63,NNW,327,0.0,-999.0,77,-99.99,,,0.00,weatherlink.com 1.10,2013-09-09 13:46:00,
2013-09-09 08:01:00,59.9,52.0,29.63,NNW,327,0.0,-999.0,75,-99.99,,,0.00,weatherlink.com 1.10,2013-09-09 14:01:00,
2013-09-09 08:17:00,60.4,52.0,29.63,NNW,327,0.0,-999.0,74,-99.99,,,0.00,weatherlink.com 1.10,2013-09-09 14:17:00,
2013-09-09 08:32:00,62.0,53.0,29.63,NNW,327,0.0,-999.0,72,-99.99,,,0.00,weatherlink.com 1.10,2013-09-09 14:32:00,
2013-09-09 08:46:00,64.3,53.0,29.64,NNW,327,0.0,-999.0,67,-99.99,,,0.00,weatherlink.com 1.10,2013-09-09 14:46:00,
2013-09-09 09:01:00,66.8,53.0,29.63,North,358,4.0,-999.0,62,-99.99,,,0.00,weatherlink.com 1.10,2013-09-09 15:01:00,
2013-09-09 09:16:00,68.6,54.0,29.62,North,359,0.0,-999.0,59,-99.99,,,0.00,weatherlink.com 1.10,2013-09-09 15:16:00,
2013-09-09 09:31:00,70.1,53.0,29.60,North,359,0.0,-999.0,55,-99.99,,,0.00,weatherlink.com 1.10,2013-09-09 15:31:00,
2013-09-09 09:47:00,71.3,53.0,29.61,North,359,0.0,-999.0,53,-99.99,,,0.00,weatherlink.com 1.10,2013-09-09 15:47:00,
2013-09-09 10:02:00,70.8,53.0,29.59,North,358,4.0,-999.0,54,-99.99,,,0.00,weatherlink.com 1.10,2013-09-09 16:02:00,
2013-09-09 10:18:00,71.5,53.0,29.59,North,358,0.0,-999.0,52,-99.99,,,0.00,weatherlink.com 1.10,2013-09-09 16:18:00,
2013-09-09 10:31:00,71.6,52.0,29.59,North,358,0.0,-999.0,51,-99.99,,,0.00,weatherlink.com 1.10,2013-09-09 16:31:00,
2013-09-09 10:47:00,73.0,52.0,29.59,North,358,0.0,-999.0,48,-99.99,,,0.00,weatherlink.com 1.10,2013-09-09 16:47:00,
2013-09-09 11:02:00,73.3,51.0,29.59,North,358,4.0,-999.0,46,-99.99,,,0.00,weatherlink.com 1.10,2013-09-09 17:02:00,
2013-09-09 11:17:00,75.3,52.0,29.60,North,359,3.0,-999.0,45,-99.99,,,0.00,weatherlink.com 1.10,2013-09-09 17:17:00,
2013-09-09 11:33:00,76.5,51.0,29.58,WNW,289,0.0,-999.0,41,-99.99,,,0.00,weatherlink.com 1.10,2013-09-09 17:33:00,
2013-09-09 11:48:00,77.0,53.0,29.57,NNW,337,4.0,-999.0,43,-99.99,,,0.00,weatherlink.com 1.10,2013-09-09 17:48:00,
2013-09-09 12:03:00,77.9,52.0,29.57,NNW,338,0.0,-999.0,40,-99.99,,,0.00,weatherlink.com 1.10,2013-09-09 18:03:00,
2013-09-09 12:18:00,77.7,51.0,29.56,ESE,119,0.0,-999.0,39,-99.99,,,0.00,weatherlink.com 1.10,2013-09-09 18:18:00,
2013-09-09 12:34:00,77.0,51.0,29.57,SSW,207,0.0,-999.0,40,-99.99,,,0.00,weatherlink.com 1.10,2013-09-09 18:34:00,
2013-09-09 12:47:00,77.7,51.0,29.57,WSW,252,0.0,-999.0,40,-99.99,,,0.00,weatherlink.com 1.10,2013-09-09 18:47:00,
2013-09-09 13:03:00,79.9,51.0,29.55,North,8,6.0,-999.0,36,-99.99,,,0.00,weatherlink.com 1.10,2013-09-09 19:03:00,
2013-09-09 13:18:00,79.8,51.0,29.53,North,4,1.0,-999.0,36,-99.99,,,0.00,weatherlink.com 1.10,2013-09-09 19:18:00,
2013-09-09 13:34:00,80.7,50.0,29.52,ESE,108,0.0,-999.0,34,-99.99,,,0.00,weatherlink.com 1.10,2013-09-09 19:34:00,
2013-09-09 13:49:00,80.9,49.0,29.51,SSE,167,4.0,-999.0,33,-99.99,,,0.00,weatherlink.com 1.10,2013-09-09 19:49:00,
2013-09-09 14:03:00,81.2,49.0,29.51,SSW,205,1.0,-999.0,33,-99.99,,,0.00,weatherlink.com 1.10,2013-09-09 20:03:00,
2013-09-09 14:18:00,82.6,49.0,29.48,WSW,256,0.0,-999.0,31,-99.99,,,0.00,weatherlink.com 1.10,2013-09-09 20:18:00,
2013-09-09 14:34:00,81.1,49.0,29.48,SSE,161,0.0,-999.0,32,-99.99,,,0.00,weatherlink.com 1.10,2013-09-09 20:34:00,
2013-09-09 14:49:00,82.0,48.0,29.47,SSW,209,4.0,-999.0,30,-99.99,,,0.00,weatherlink.com 1.10,2013-09-09 20:49:00,
2013-09-09 15:03:00,82.6,45.0,29.46,SW,223,3.0,-999.0,27,-99.99,,,0.00,weatherlink.com 1.10,2013-09-09 21:03:00,
2013-09-09 15:18:00,83.4,47.0,29.45,WSW,248,5.0,-999.0,28,-99.99,,,0.00,weatherlink.com 1.10,2013-09-09 21:18:00,
2013-09-09 15:34:00,83.0,47.0,29.45,SSE,165,0.0,-999.0,28,-99.99,,,0.00,weatherlink.com 1.10,2013-09-09 21:34:00,
2013-09-09 15:49:00,81.8,47.0,29.45,West,264,0.0,-999.0,30,-99.99,,,0.00,weatherlink.com 1.10,2013-09-09 21:49:00,
2013-09-09 16:04:00,81.6,47.0,29.45,NW,323,3.0,-999.0,30,-99.99,,,0.00,weatherlink.com 1.10,2013-09-09 22:04:00,
2013-09-09 16:20:00,73.3,52.0,29.51,SSE,160,18.0,-999.0,48,-99.99,,,0.00,weatherlink.com 1.10,2013-09-09 22:20:00,
2013-09-09 16:35:00,60.5,56.0,29.63,SE,131,13.0,-999.0,86,-99.99,,,0.27,weatherlink.com 1.10,2013-09-09 22:35:00,
2013-09-09 16:50:00,59.0,56.0,29.68,South,172,4.0,-999.0,89,-99.99,,,0.59,weatherlink.com 1.10,2013-09-09 22:50:00,
2013-09-09 17:05:00,61.3,54.0,29.62,North,1,5.0,-999.0,78,-99.99,,,0.69,weatherlink.com 1.10,2013-09-09 23:05:00,
2013-09-09 17:19:00,61.3,55.0,29.61,North,1,6.0,-999.0,79,-99.99,,,0.69,weatherlink.com 1.10,2013-09-09 23:19:00,
2013-09-09 17:34:00,61.0,56.0,29.61,NW,323,6.0,-999.0,84,-99.99,,,0.70,weatherlink.com 1.10,2013-09-09 23:34:00,
2013-09-09 17:49:00,60.5,56.0,29.60,NW,323,8.0,-999.0,85,-99.99,,,0.71,weatherlink.com 1.10,2013-09-09 23:49:00,
2013-09-09 18:05:00,61.0,56.0,29.61,WNW,303,4.0,-999.0,82,-99.99,,,0.71,weatherlink.com 1.10,2013-09-10 00:05:00,
2013-09-09 18:20:00,61.6,55.0,29.60,WNW,303,0.0,-999.0,80,-99.99,,,0.71,weatherlink.com 1.10,2013-09-10 00:20:00,
2013-09-09 18:36:00,61.5,56.0,29.62,WNW,303,0.0,-999.0,83,-99.99,,,0.71,weatherlink.com 1.10,2013-09-10 00:36:00,
2013-09-09 18:50:00,62.1,57.0,29.64,WNW,303,0.0,-999.0,84,-99.99,,,0.71,weatherlink.com 1.10,2013-09-10 00:50:00,
2013-09-09 19:05:00,62.3,58.0,29.65,SSE,148,3.0,-999.0,86,-99.99,,,0.74,weatherlink.com 1.10,2013-09-10 01:05:00,
2013-09-09 19:21:00,61.3,58.0,29.65,West,276,9.0,-999.0,88,-99.99,,,0.82,weatherlink.com 1.10,2013-09-10 01:21:00,
2013-09-09 19:35:00,60.7,57.0,29.61,WSW,257,11.0,-999.0,88,-99.99,,,0.83,weatherlink.com 1.10,2013-09-10 01:35:00,
2013-09-09 19:50:00,60.5,58.0,29.63,WSW,254,5.0,-999.0,90,-99.99,,,0.83,weatherlink.com 1.10,2013-09-10 01:50:00,
2013-09-09 20:05:00,60.2,58.0,29.62,NW,319,9.0,-999.0,91,-99.99,,,0.84,weatherlink.com 1.10,2013-09-10 02:05:00,
2013-09-09 20:20:00,60.1,57.0,29.61,NNW,347,5.0,-999.0,90,-99.99,,,0.84,weatherlink.com 1.10,2013-09-10 02:20:00,
2013-09-09 20:35:00,60.1,57.0,29.58,North,352,4.0,-999.0,90,-99.99,,,0.84,weatherlink.com 1.10,2013-09-10 02:35:00,
2013-09-09 20:50:00,60.1,57.0,29.59,North,352,3.0,-999.0,90,-99.99,,,0.84,weatherlink.com 1.10,2013-09-10 02:50:00,
2013-09-09 21:05:00,60.1,57.0,29.60,North,352,0.0,-999.0,89,-99.99,,,0.84,weatherlink.com 1.10,2013-09-10 03:05:00,
2013-09-09 21:20:00,59.8,57.0,29.61,North,352,1.0,-999.0,90,-99.99,,,0.84,weatherlink.com 1.10,2013-09-10 03:20:00,
2013-09-09 21:35:00,59.9,57.0,29.59,North,352,3.0,-999.0,90,-99.99,,,0.84,weatherlink.com 1.10,2013-09-10 03:35:00,
2013-09-09 21:50:00,59.9,57.0,29.59,North,352,0.0,-999.0,90,-99.99,,,0.84,weatherlink.com 1.10,2013-09-10 03:50:00,
2013-09-09 22:05:00,59.9,57.0,29.59,North,352,2.0,-999.0,91,-99.99,,,0.84,weatherlink.com 1.10,2013-09-10 04:05:00,
2013-09-09 22:20:00,59.9,57.0,29.59,North,352,0.0,-999.0,91,-99.99,,,0.84,weatherlink.com 1.10,2013-09-10 04:20:00,
2013-09-09 22:35:00,59.9,57.0,29.59,North,352,0.0,-999.0,90,-99.99,,,0.84,weatherlink.com 1.10,2013-09-10 04:35:00,
2013-09-09 22:50:00,59.9,57.0,29.58,North,352,3.0,-999.0,90,-99.99,,,0.84,weatherlink.com 1.10,2013-09-10 04:50:00,
2013-09-09 23:05:00,60.1,57.0,29.58,North,352,0.0,-999.0,89,-99.99,,,0.84,weatherlink.com 1.10,2013-09-10 05:05:00,
2013-09-09 23:20:00,60.1,57.0,29.57,North,352,1.0,-999.0,89,-99.99,,,0.84,weatherlink.com 1.10,2013-09-10 05:20:00,
2013-09-09 23:35:00,59.9,57.0,29.56,North,352,3.0,-999.0,90,-99.99,,,0.84,weatherlink.com 1.10,2013-09-10 05:35:00,